Regional Weather Roundup
Issued by NWS

Home | Current Version | Previous Version | Graphics & Text | Print | Product List | Glossary On
Versions: 1 2 3 4 5 6 7 8 9 10 11 12 13 14 15 16 17 18 19 20 21 22 23 24 25 26 27 28 29 30 31 32 33 34 35 36 37 38 39 40 41 42 43 44 45 46 47 48 49 50
943
ASUS43 KMKX 030021
RWRWI

WISCONSIN REGIONAL WEATHER ROUNDUP
NATIONAL WEATHER SERVICE MILWAUKEE/SULLIVAN WI
700 PM CDT MON MAY 02 2016

NOTE: "FAIR" INDICATES FEW OR NO CLOUDS BELOW 12,000 FEET WITH NO
SIGNIFICANT WEATHER AND/OR OBSTRUCTIONS TO VISIBILITY.

WIZ001-002-006>008-014>016-023>028-030100-
NORTHWEST WISCONSIN

CITY           SKY/WX    TMP DP  RH WIND       PRES   REMARKS
SUPERIOR ARPT  SUNNY     46  36  67 N3        29.98S
6HR MIN TEMP:  46; 6HR MAX TEMP:  65;

ASHLAND        SUNNY     63  31  30 CALM      29.99F
6HR MIN TEMP:  61; 6HR MAX TEMP:  66;

HAYWARD        CLOUDY    64  29  26 NE5       29.98F
6HR MIN TEMP:  62; 6HR MAX TEMP:  66;

SIREN          CLOUDY    64  29  26 CALM      29.99F
6HR MIN TEMP:  61; 6HR MAX TEMP:  67;

CUMBERLAND     MOSUNNY   59  36  41 S3        30.00R
RICE LAKE      SUNNY     64  29  26 S6        30.01S
6HR MIN TEMP:  59; 6HR MAX TEMP:  65;

CHETEK         MOSUNNY   64  33  32 W5        30.00S
6HR MIN TEMP:  60; 6HR MAX TEMP:  65;

LADYSMITH      MOSUNNY   60  35  39 SW5       30.01S
6HR MIN TEMP:  59; 6HR MAX TEMP:  65;

EAU CLAIRE     SUNNY     63  31  30 CALM      29.99F
6HR MIN TEMP:  61; 6HR MAX TEMP:  66;

MENOMONIE      SUNNY     62  32  32 CALM      30.00S
6HR MIN TEMP:  62; 6HR MAX TEMP:  71;

NEW RICHMOND   SUNNY     64  30  28 W5        30.00F
6HR MIN TEMP:  60; 6HR MAX TEMP:  65;

OSCEOLA        SUNNY     65  31  28 SW3       30.02S
6HR MIN TEMP:  63; 6HR MAX TEMP:  66;

$$

WIZ003>005-009-010-017-018-030100-
NORTH CENTRAL WISCONSIN

CITY           SKY/WX    TMP DP  RH WIND       PRES   REMARKS
MANITOWISH WTR SUNNY     59  32  35 N9        29.99S
6HR MIN TEMP:  57; 6HR MAX TEMP:  62;

ARBOR VITAE    MOSUNNY   59  31  33 CALM      29.99S
6HR MIN TEMP:  57; 6HR MAX TEMP:  63;

WOODRUFF       MOSUNNY   59  31  33 CALM      29.99S
6HR MIN TEMP:  57; 6HR MAX TEMP:  63;

RHINELANDER    PTSUNNY   61  29  29 W7        30.00S
6HR MIN TEMP:  57; 6HR MAX TEMP:  63;

EAGLE RIVER    MOSUNNY   60  26  26 SW7       29.98F
LAND O LAKES   SUNNY     60  28  29 N7        30.00S
6HR MIN TEMP:  58; 6HR MAX TEMP:  64;

PHILLIPS       CLOUDY    60  31  33 CALM      29.99S
6HR MIN TEMP:  58; 6HR MAX TEMP:  63;

TOMAHAWK       CLOUDY    60  29  31 CALM      30.00S
6HR MIN TEMP:  57; 6HR MAX TEMP:  63;

MEDFORD        MOSUNNY   59  35  40 CALM      29.99F
6HR MIN TEMP:  56; 6HR MAX TEMP:  62;

MERRILL        MOSUNNY  N/A N/A N/A CALM      30.00S
$$

WIZ029-030-035-036-043>047-030100-
CENTRAL WISCONSIN

CITY           SKY/WX    TMP DP  RH WIND       PRES   REMARKS
WAUSAU         PTSUNNY   62  33  33 NW7       29.97F
6HR MIN TEMP:  62; 6HR MAX TEMP:  66;

MOSINEE        MOSUNNY   61  34  36 NW7       30.00F
MARSHFIELD     SUNNY     62  32  32 NW3       29.99F
6HR MIN TEMP:  59; 6HR MAX TEMP:  66;

STEVENS POINT  CLOUDY    61  32  33 N5        29.99F
6HR MIN TEMP:  57; 6HR MAX TEMP:  62;

WAUPACA        MOCLDY    62  32  32 CALM      29.99S
6HR MIN TEMP:  64; 6HR MAX TEMP:  67;

WAUTOMA        CLOUDY    62  31  31 SE5       30.00S
6HR MIN TEMP:  61; 6HR MAX TEMP:  66;

WISC RAPIDS    SUNNY     63  30  28 N6        30.01F
6HR MIN TEMP:  61; 6HR MAX TEMP:  67;

CAMP DOUGLAS   PTSUNNY   61  37  41 W2        30.00S
$$

WIZ011>013-019>022-031-037>040-048>050-030100-
NORTHEAST WISCONSIN

CITY           SKY/WX    TMP DP  RH WIND       PRES   REMARKS
ANTIGO         PTCLDY    59  33  36 CALM      29.99S
6HR MIN TEMP:  57; 6HR MAX TEMP:  62;

SHAWANO        CLEAR     60  31  33 S3        29.98S
6HR MIN TEMP:  62; 6HR MAX TEMP:  68;

OCONTO         CLEAR     59  36  42 SE7       29.99F
6HR MIN TEMP:  59; 6HR MAX TEMP:  62;

STURGEON BAY   CLEAR     55  30  38 SE6       30.03F
6HR MIN TEMP:  55; 6HR MAX TEMP:  61;

GREEN BAY      CLEAR     60  35  39 SE10      30.00F
6HR MIN TEMP:  60; 6HR MAX TEMP:  65; 6HR PCP: TRACE;

MANITOWOC      CLEAR     57  35  43 MISG      30.02S
6HR MIN TEMP:  53; 6HR MAX TEMP:  61;

APPLETON       PTCLDY    61  28  29 SE8       29.98F
CLINTONVILLE   CLOUDY    63  30  29 CALM      29.98F
OSHKOSH        CLEAR     59  33  37 SE8       30.00F
6HR MIN TEMP:  59; 6HR MAX TEMP:  63;

$$

WIZ032>034-041-042-053>061-030100-
SOUTHWEST WISCONSIN

CITY           SKY/WX    TMP DP  RH WIND       PRES   REMARKS
LA CROSSE      CLOUDY    64  33  31 SW5       30.00F
6HR MIN TEMP:  63; 6HR MAX TEMP:  68;

SPARTA         PTSUNNY   62  34  35 CALM      30.02S
6HR MIN TEMP:  60; 6HR MAX TEMP:  64;

VIROQUA        CLOUDY    59  37  42 CALM      30.02S
6HR MIN TEMP:  58; 6HR MAX TEMP:  64;

BOSCOBEL       PTSUNNY   63  33  32 CALM      30.02S
6HR MIN TEMP:  63; 6HR MAX TEMP:  67;

PRAIRIE DU CHI CLOUDY    61  35  37 CALM      30.02S
6HR MIN TEMP:  58; 6HR MAX TEMP:  63;

PLATTEVILLE    MOSUNNY   60  33  37 CALM      30.02S
6HR MIN TEMP:  58; 6HR MAX TEMP:  61;

$$

WIZ056-057-062-063-064-067-068-030100-
SOUTH CENTRAL WISCONSIN

CITY           SKY/WX    TMP DP  RH WIND       PRES   REMARKS
REEDSBURG      CLOUDY    60  35  39 NW5       30.00S
6HR MIN TEMP:  58; 6HR MAX TEMP:  63;

BARABOO/DELLS  CLOUDY    61  30  30 CALM      30.00S
6HR MIN TEMP:  58; 6HR MAX TEMP:  65;

LONE ROCK      CLOUDY    61  34  36 W3        30.01S
6HR MIN TEMP:  61; 6HR MAX TEMP:  65;

MINERAL POINT  PTSUNNY   59  32  36 CALM      30.02S
MADISON        PTCLDY    58  35  42 NE5       30.00S
6HR MIN TEMP:  58; 6HR MAX TEMP:  64;

MIDDLETON      CLEAR     61  34  35 SE5       30.01S
6HR MIN TEMP:  59; 6HR MAX TEMP:  64;

WATERTOWN      MOCLDY    58  37  45 E5        30.01S
6HR MIN TEMP:  58; 6HR MAX TEMP:  62;

MONROE         CLOUDY    57  36  44 CALM      30.01S
JANESVILLE     MOCLDY    59  39  47 E5        30.01S
$$

WIZ051-052-058>065-066-070>072-030100-
SOUTHEAST WISCONSIN

CITY           SKY/WX    TMP DP  RH WIND       PRES   REMARKS
MILWAUKEE      PTCLDY    50  33  52 NE6       30.03S
6HR MIN TEMP:  50; 6HR MAX TEMP:  57;

WAUKESHA       PTCLDY    55  30  38 E14       30.02S
MILWAUKEE/TIMM CLEAR     55  27  33 E6        30.03S
RACINE         CLEAR     51  33  50 NE5       30.04S
6HR MIN TEMP:  51; 6HR MAX TEMP:  58;

BURLINGTON     CLEAR     56  32  40 E9        30.02R
6HR MIN TEMP:  56; 6HR MAX TEMP:  60;

KENOSHA        CLEAR     51  34  52 E8        30.03R
6HR MIN TEMP:  51; 6HR MAX TEMP:  60;

FOND DU LAC    CLEAR     60  35  39 SE5       30.00F
6HR MIN TEMP:  60; 6HR MAX TEMP:  63;

SHEBOYGAN      CLEAR     55  34  45 E6        30.02S
6HR MIN TEMP:  55; 6HR MAX TEMP:  60;

WEST BEND      CLEAR     57  30  35 NE7       30.02R
JUNEAU         MOCLDY    59  37  44 SE7       30.02S
6HR MIN TEMP:  57; 6HR MAX TEMP:  61;

$$

LSZ147-162-030100-
LAKE SUPERIOR

STATION/POSITION TIME  TEMP    WIND        PRES    WAVE
                       AIR SEA DIR/SP/G            HT/PER
                 (UTC) (F)     (DEG/KT/KT) (MB)    (FT/S)
W MID LAKE BUOY  2350   40 37  180/  4/  4 1016.4F   0
DEVILS ISLAND    0000   52     130/  2/  3 1015.9F
SAXON HARBOR     2340   52      CALM  /  3 1015.6F
$$

LMZ867-665-643>646-030100-
LAKE MICHIGAN

STATION/POSITION TIME  TEMP    WIND        PRES    WAVE
                       AIR SEA DIR/SP/G            HT/PER
                 (UTC) (F)     (DEG/KT/KT) (MB)    (FT/S)
CHAMBERS ISLAND  2300   60     150/  5/  9 1016.3S
N MID LAKE BUOY  2350   47 39     CALM     1016.2F   0
NORC1F1C2F2C3F3C4F4C5F5C6F6C7F7C8M1C9M2Ca!



USA.gov is the U.S. government's official web portal to all federal, state and local government web resources and services.